Weather History for HESN - July, 2013

Change the Weather History Date:

Monday, July 1, 2013

  Actual Average Record
Temperature  
Mean Temperature 95 °F -  
Max Temperature 108 °F 104 °F 118 °F (2014)
Min Temperature 82 °F 81 °F 75 °F (2011)
Cooling Degree Days 30    
Growing Degree Days 45 (Base 50)    
Moisture  
Dew Point 42 °F    
Average Humidity 15    
Maximum Humidity 25    
Minimum Humidity 5    
Precipitation  
Precipitation 0.00 in 0.00 in - ()
Sea Level Pressure  
Sea Level Pressure 29.72 in    
Wind  
Wind Speed 8 mph ()    
Max Wind Speed 14 mph    
Max Gust Speed -    
Visibility 6.0 miles    
Events      
Averages and records for this station are not official NWS values.
T = Trace of Precipitation, MM = Missing Value Source: Averaged Metar Reports

Daily Weather History Graph

Daily Weather History Graph

Search for Another Location

Airport or City:

Trip Planner

Search our weather history database for the weather conditions in past years. The results will help you decide how hot, cold, wet, or windy it might be!

Date:

Astronomy

Jul. 01, 2013 Rise Set
Actual Time 5:04 AM EET 6:40 PM EET
Civil Twilight 4:39 AM EET 7:05 PM EET
Nautical Twilight 4:08 AM EET 7:36 PM EET
Astronomical Twilight 3:37 AM EET 8:07 PM EET
Moon No Moon Rise 12:57 PM EET (7/1)
Length of Visible Light 14h 26m
Length of Day
13h 35m
Last Quarter, 38% of the Moon is Illuminated
Jul 1
Last Quarter
Jul 8
New
Jul 16
First Quarter
Jul 22
Full
Jul 29
Last Quarter

Hourly Weather History & Observations

Time (EET) Temp. Dew Point Humidity Pressure Visibility Wind Dir Wind Speed Gust Speed Precip Events Conditions
12:00 AM 93.2 °F 46.4 °F 20% 29.71 in - WNW 13.8 mph - N/A   Clear
1:00 AM 91.4 °F 46.4 °F 21% 29.71 in - NW 11.5 mph - N/A   Clear
2:00 AM 89 °F 45 °F 13% 29.67 in 6 mi NW 8.1 mph - -  
2:00 AM 89.6 °F 44.6 °F 21% 29.71 in - NW 8.1 mph - N/A   Clear
3:00 AM 86.0 °F 42.8 °F 22% 29.71 in - NW 5.8 mph - N/A   Clear
4:00 AM 84.2 °F 44.6 °F 25% 29.71 in - NW 5.8 mph - N/A   Clear
5:00 AM 84.2 °F 41.0 °F 22% 29.71 in - North 5.8 mph - N/A   Clear
6:00 AM 84.2 °F 42.8 °F 23% 29.74 in - NW 4.6 mph - N/A   Clear
7:00 AM 87.8 °F 42.8 °F 21% 29.77 in - NW 6.9 mph - N/A   Clear
8:00 AM 91 °F 44 °F 11% 29.74 in 6 mi North 10.4 mph - -  
8:00 AM 91.4 °F 44.6 °F 20% 29.77 in - North 10.4 mph - N/A   Clear
9:00 AM 93.2 °F 42.8 °F 17% 29.77 in - North 9.2 mph - N/A   Clear
10:00 AM 96.8 °F 46.4 °F 18% 29.77 in - NNW 8.1 mph - N/A   Clear
11:00 AM 102.2 °F 41.0 °F 12% 29.77 in - NNW 5.8 mph - N/A   Clear
12:00 PM 104.0 °F 42.8 °F 12% 29.74 in - NNW 8.1 mph - N/A   Clear
1:00 PM 105.8 °F 42.8 °F 12% 29.74 in - WNW 6.9 mph - N/A   Clear
2:00 PM 107 °F 41 °F 5% 29.66 in 6 mi WSW 8.1 mph - -  
2:00 PM 107.6 °F 41.0 °F 10% 29.71 in - WSW 8.1 mph - N/A   Clear
3:00 PM 107.6 °F 39.2 °F 10% 29.68 in - WNW 11.5 mph - N/A   Clear
4:00 PM 109.4 °F 41.0 °F 10% 29.68 in - West 8.1 mph - N/A   Clear
5:00 PM 107.6 °F 39.2 °F 10% 29.65 in - WNW 11.5 mph - N/A   Clear
6:00 PM 104.0 °F 41.0 °F 12% 29.68 in - NNW 11.5 mph - N/A   Clear
7:00 PM 100.4 °F 39.2 °F 12% 29.68 in - North 13.8 mph - N/A   Clear
8:00 PM 98 °F 35 °F 5% 29.67 in 6 mi NNW 10.4 mph - -  
8:00 PM 98.6 °F 35.6 °F 11% 29.71 in - NNW 10.4 mph - N/A   Clear
9:00 PM 95.0 °F 35.6 °F 12% 29.74 in - NNW 10.4 mph - N/A   Clear
10:00 PM 93.2 °F 41.0 °F 16% 29.74 in - NW 11.5 mph - N/A   Clear
11:00 PM 89.6 °F 46.4 °F 22% 29.74 in - NW 11.5 mph - N/A   Clear